Location: Charlotte
(35.2269°N, 80.8433°W)
Time: 01:55:38
(UTC-04:00)

ISS - Visible Passes

Search period start: 26 October 2014 00:00
Search period end: 04 November 2014 23:00
Orbit: 412 x 416 km, 51.6° (Epoch: 25 October)

Date Brightness Start Highest point End Pass type
(mag) Time Alt. Az. Time Alt. Az. Time Alt. Az.
26 Oct -3.4 19:38:37 10° NW 19:41:57 69° NE 19:43:42 25° ESE visible
27 Oct -0.7 20:26:47 10° W 20:29:07 18° SW 20:30:19 15° SSW visible
28 Oct -1.6 19:36:55 10° WNW 19:39:58 34° SW 19:43:00 10° SSE visible
30 Oct 0.2 19:36:41 10° WSW 19:37:38 11° SW 19:38:35 10° SW visible
